Wind_Speed
23 22 21 20 20 19 19 19 20 21 21 22 23 24 25 27 28 29 30 31 33 34 35 35 36 38 39 41 42 43 44 45 47 48 49 51 53 55 57 57 58 58 59 60 59 59 59 59 61 63 65 65 65 64 63 63 63 62 63 64 63 61 58 54 52 50 48 45 43 45 49 50 52 50 46 44 42 39 40 38 36 34 33 31 28 28 29 30
25 25 24 23 22 22 22 23 23 23 24 24 25 26 27 28 29 30 31 32 33 34 35 35 36 37 38 39 40 42 43 45 46 46 47 48 50 53 55 57 58 58 59 59 60 61 61 60 59 61 64 66 66 66 65 65 65 65 65 66 65 62 58 53 50 50 49 47 45 45 47 49 51 51 50 47 45 43 42 41 39 36 35 35 31 28 29 31
27 26 26 25 25 25 26 27 27 27 27 27 27 28 29 30 31 32 32 33 33 34 35 35 36 37 37 38 39 40 41 43 44 45 46 46 48 50 52 54 56 58 59 60 60 61 62 62 61 60 61 64 66 67 67 66 67 67 67 68 64 60 59 55 51 51 50 49 48 47 48 50 50 51 52 51 48 47 45 43 42 40 37 37 35 34 34 34
29 29 28 28 28 29 30 30 31 31 30 30 30 30 30 31 31 32 33 34 35 35 35 35 36 36 37 37 37 38 39 41 42 44 45 46 46 47 49 51 53 55 58 59 60 61 62 62 63 62 61 61 63 66 68 69 68 68 69 67 63 60 61 59 56 53 51 50 51 50 50 51 50 51 53 53 53 51 48 45 43 43 42 40 38 38 39 37
30 30 31 31 31 32 32 33 33 33 33 33 33 33 33 33 33 33 34 35 35 35 35 35 35 34 34 35 36 37 38 39 40 41 43 44 45 46 47 49 50 53 55 57 60 61 62 63 63 64 64 63 62 64 66 68 70 70 69 65 63 63 64 63 60 57 53 52 52 53 54 52 51 52 53 54 55 54 51 48 44 44 46 45 42 40 40 39
31 31 32 32 33 34 34 35 35 35 35 35 35 35 35 35 35 35 35 35 35 36 35 35 34 33 32 32 33 35 36 37 38 38 40 42 43 45 46 47 48 50 52 55 57 60 62 63 64 64 65 65 64 64 63 65 68 70 68 66 65 67 67 65 62 61 58 56 55 55 56 55 54 55 55 55 56 55 55 52 46 46 48 49 47 44 42 40
32 32 33 33 34 35 36 36 36 36 36 36 37 36 36 36 36 37 36 36 35 35 35 34 33 32 31 30 30 32 34 36 36 36 37 39 41 43 45 46 48 49 50 52 55 57 60 62 64 65 66 66 66 65 64 64 66 68 68 67 68 69 68 66 65 63 61 60 58 56 57 58 59 58 57 57 56 56 57 54 50 50 51 51 50 46 43 42
33 33 34 35 36 37 38 38 38 37 37 38 37 37 37 36 36 37 37 36 36 35 34 33 32 31 30 28 27 28 30 33 35 35 35 36 38 39 41 43 45 47 49 51 53 55 57 60 62 65 66 67 67 67 66 65 65 66 66 67 69 70 69 67 67 65 63 62 60 59 58 59 59 59 60 59 56 56 56 55 55 55 54 53 52 47 43 43
34 35 36 37 38 39 39 39 39 39 39 39 38 38 37 36 36 36 36 36 35 34 33 32 30 29 27 25 24 24 26 29 31 33 34 34 35 36 38 39 41 43 46 48 51 52 55 57 59 62 64 66 67 67 67 67 67 67 67 67 68 69 69 69 68 67 66 64 62 62 61 60 59 59 62 60 58 58 57 56 56 56 58 57 56 51 45 45
36 37 38 39 40 41 41 41 41 41 40 40 39 38 37 36 36 36 35 35 34 33 32 30 28 26 25 23 21 21 22 24 26 28 31 32 34 35 36 38 39 40 42 44 47 50 52 54 57 59 61 64 66 67 68 68 68 68 69 68 67 67 68 69 69 69 68 66 64 63 62 61 59 60 61 59 59 60 59 58 56 55 58 59 58 56 51 48
36 38 39 40 41 42 42 42 42 42 41 40 40 39 37 36 35 35 34 34 33 32 30 28 25 24 22 21 21 21 22 23 24 26 28 31 33 35 36 37 39 41 42 43 45 47 49 51 53 56 58 61 63 65 68 69 69 69 70 69 68 67 67 68 69 70 70 68 66 64 64 62 61 63 62 58 59 61 61 60 57 55 56 57 57 56 55 53
37 38 40 41 42 43 43 43 43 43 42 41 40 38 36 35 35 34 33 33 32 30 28 26 24 22 21 21 23 24 26 26 26 26 27 29 32 35 37 38 38 40 42 44 45 45 47 49 51 53 56 58 60 62 65 67 69 69 70 70 70 69 69 68 68 69 70 69 67 66 66 66 65 65 63 60 59 59 60 59 57 54 53 54 54 53 53 53
38 39 40 42 43 44 44 44 44 44 43 41 39 38 36 35 34 33 32 32 31 29 27 25 23 23 23 24 26 27 28 28 28 28 29 30 31 34 37 39 40 41 42 44 45 45 45 47 49 50 53 55 57 59 62 65 67 69 70 71 71 71 71 69 68 68 68 68 68 67 68 68 65 63 62 61 59 57 57 57 56 54 52 52 51 50 50 48
38 40 41 43 44 45 45 45 45 44 43 41 39 37 36 34 33 32 31 30 29 28 27 25 25 25 26 28 28 28 28 28 30 32 34 35 34 34 35 37 40 42 43 44 45 45 44 44 46 48 49 52 55 57 59 62 64 66 69 71 72 72 72 70 68 68 68 67 67 68 70 68 63 61 62 61 59 57 56 56 56 55 52 51 50 48 47 46
39 40 42 44 45 45 46 46 45 44 43 41 38 37 35 34 33 31 30 29 28 28 27 26 27 28 29 29 29 28 28 30 33 36 39 40 39 37 35 34 36 40 42 43 45 46 45 44 43 44 46 49 51 54 56 59 61 64 67 70 72 73 73 71 69 69 69 67 67 69 70 66 62 62 62 61 59 57 57 56 56 56 53 51 51 48 46 45
40 41 43 44 45 46 46 46 46 44 43 41 38 36 35 34 32 31 29 28 27 27 26 27 27 28 29 29 29 28 28 31 34 37 40 40 39 37 34 31 30 35 40 42 43 44 46 45 43 43 44 46 48 50 53 56 59 62 64 67 70 72 73 72 71 71 70 68 68 69 70 66 63 63 62 61 59 58 57 57 57 57 55 52 50 49 46 44
40 42 43 45 46 46 46 46 45 44 42 40 38 36 34 33 32 31 28 27 27 26 26 26 26 27 28 28 28 27 29 32 34 37 37 36 35 33 31 29 25 27 34 39 41 43 44 45 45 44 43 45 47 48 50 53 56 59 61 64 67 70 72 72 72 71 70 70 69 70 71 68 65 64 62 61 60 58 58 58 58 56 56 53 50 49 48 45
41 42 44 45 46 46 47 46 45 43 42 40 38 36 35 34 32 30 28 27 26 26 26 25 25 26 26 26 26 27 29 31 33 34 33 31 30 30 29 27 24 23 27 32 37 41 42 43 44 45 44 44 46 48 49 51 52 55 57 61 64 65 68 71 71 71 71 71 71 71 72 69 66 64 63 61 60 59 58 58 58 57 56 54 52 50 49 47
41 43 44 45 46 47 47 46 44 42 41 40 38 36 35 34 32 30 28 26 25 25 24 24 24 24 24 25 26 27 29 31 31 30 28 27 27 28 28 25 23 23 23 26 31 36 40 42 42 43 45 45 46 48 49 50 50 52 54 57 61 62 65 67 69 70 71 72 72 72 72 71 69 66 64 61 60 60 59 58 58 58 57 55 53 51 49 49
42 43 44 45 46 47 47 46 44 41 40 39 38 36 35 35 33 31 27 25 24 24 23 23 24 23 24 25 26 28 30 30 29 26 24 26 27 26 25 24 21 20 20 23 26 30 36 40 41 41 42 45 46 46 48 50 50 51 53 55 59 61 62 64 65 66 69 72 73 72 72 73 71 68 66 64 61 61 60 59 59 59 58 57 55 53 50 49
42 43 44 45 46 47 47 46 44 42 40 38 37 36 36 35 34 31 28 26 25 24 23 23 23 23 24 25 25 28 29 29 28 23 22 25 26 26 25 23 21 18 18 19 22 26 30 36 40 41 41 42 44 46 47 49 50 51 52 53 56 58 60 61 62 62 66 70 72 73 74 74 73 70 68 66 64 62 60 59 60 60 59 57 56 53 52 50
42 43 44 45 47 47 47 46 44 42 40 38 37 36 35 35 33 31 28 27 25 23 23 23 23 23 24 24 25 28 29 29 27 21 19 23 25 26 25 24 21 18 17 17 19 21 24 28 35 40 42 41 42 45 47 48 50 51 52 52 53 55 56 57 58 59 62 67 70 72 75 76 74 72 70 68 66 63 61 60 60 60 59 58 57 54 53 51
43 44 44 45 46 47 47 46 44 43 41 39 37 36 35 35 34 31 28 27 25 23 23 22 22 22 24 25 26 27 28 28 25 18 17 21 23 24 24 25 23 20 19 18 18 18 20 23 27 35 41 43 42 44 46 47 49 50 51 51 51 51 52 54 55 56 59 64 67 69 73 76 75 74 72 70 68 65 62 61 60 61 60 59 58 55 52 51
43 44 44 45 46 47 47 46 45 43 41 40 38 36 36 36 34 31 28 27 25 23 22 22 22 22 24 25 26 27 27 27 25 18 16 19 21 22 23 24 24 22 22 21 20 18 19 21 23 28 36 42 44 43 44 46 48 49 50 50 50 49 51 52 52 53 55 60 64 65 69 75 74 74 74 71 69 67 64 62 61 61 60 60 60 57 53 52
42 43 44 45 46 46 46 46 44 43 41 40 38 37 37 37 35 32 29 27 24 23 22 22 22 22 24 25 25 26 26 26 24 18 16 18 20 21 21 23 23 22 23 23 22 20 20 21 22 24 29 36 42 43 43 45 47 48 49 49 49 50 52 52 51 52 52 56 60 61 66 72 73 73 74 72 70 69 66 64 62 61 60 60 61 59 55 54
42 43 44 45 45 46 46 45 44 43 41 40 39 38 38 38 36 33 30 27 24 23 23 23 22 22 25 25 25 26 25 25 24 18 16 19 20 21 21 22 23 23 24 24 22 20 20 22 23 25 26 28 34 39 42 45 46 47 48 48 50 52 54 53 53 52 51 52 55 57 62 70 71 71 73 72 71 71 68 65 63 61 60 61 60 58 56 56
42 43 44 44 45 45 45 45 44 43 42 41 40 38 38 38 37 34 31 27 24 24 24 24 23 23 24 25 25 26 24 24 24 19 17 19 21 22 21 22 23 24 25 25 23 20 20 22 24 26 27 26 28 32 38 42 45 46 46 47 50 52 53 54 55 54 51 50 52 54 58 67 70 69 71 72 72 72 71 67 64 62 61 61 59 57 56 56
42 43 44 44 44 45 45 45 44 43 43 42 40 39 38 38 38 35 31 27 24 25 25 25 24 23 24 26 25 25 25 24 23 21 19 19 21 22 21 22 23 24 26 26 24 21 21 21 23 26 28 28 27 28 31 36 41 43 45 48 49 51 53 54 55 55 52 51 52 52 54 63 70 69 67 70 72 72 72 69 66 63 62 61 59 57 57 56
42 43 43 44 44 44 44 44 43 43 43 43 41 39 38 38 39 37 32 28 25 25 26 26 26 24 23 25 26 26 27 25 23 22 21 20 21 22 21 22 23 23 24 26 24 22 24 23 23 26 27 28 29 29 28 29 34 40 44 46 47 49 51 53 55 55 54 56 55 50 50 58 67 67 63 67 71 71 70 69 66 65 63 61 59 57 57 57
42 43 43 43 43 44 44 43 43 43 44 43 42 40 38 39 39 38 34 29 26 25 25 27 27 25 23 24 25 26 28 27 23 23 22 21 22 23 23 22 22 22 23 24 22 22 24 26 24 23 24 28 30 30 29 27 29 34 39 42 45 47 49 50 53 53 55 59 56 50 49 54 63 66 61 63 69 68 68 68 67 66 64 62 61 58 58 58
42 43 43 43 43 43 43 43 42 43 44 44 43 40 39 39 40 39 36 31 27 24 25 27 27 26 24 23 23 25 28 28 23 22 22 21 22 24 24 23 21 21 23 23 21 20 22 24 24 20 21 28 30 31 31 29 29 30 33 37 40 44 46 48 50 51 56 59 55 51 51 53 61 66 60 59 65 66 66 68 67 66 66 64 62 60 59 58
42 43 43 43 43 43 42 42 42 43 44 44 43 41 39 39 40 40 37 32 28 25 24 25 26 25 24 24 23 23 26 27 24 21 20 20 22 24 24 23 22 23 25 23 20 19 18 21 23 19 18 26 30 31 31 31 31 30 30 32 35 39 43 46 48 50 55 58 55 52 54 57 61 64 59 55 60 63 65 66 65 66 66 66 64 62 60 59
42 43 43 43 42 42 42 42 41 42 44 44 43 41 40 40 40 40 38 33 29 27 24 24 25 26 26 26 24 22 23 24 24 21 20 21 22 23 24 23 22 24 26 23 19 18 16 18 22 20 17 21 28 31 29 31 32 32 31 31 32 35 38 42 45 47 52 57 56 53 54 59 61 61 59 54 54 57 61 64 64 65 66 67 67 65 62 61
41 42 43 42 42 42 42 41 41 42 43 44 43 41 40 40 40 40 39 35 31 28 25 23 23 25 26 28 26 24 23 23 22 21 21 24 23 22 24 23 20 24 27 22 19 20 17 17 21 21 18 18 24 29 29 30 33 33 33 32 33 34 35 37 39 43 48 53 55 54 55 60 60 60 59 54 51 50 54 59 62 63 65 67 68 67 65 63
41 42 42 42 42 42 42 42 41 41 42 44 44 43 41 40 40 39 38 37 33 29 26 23 22 23 24 27 27 24 23 24 23 20 22 28 27 22 23 22 19 22 26 23 20 22 20 16 20 21 19 18 20 26 29 30 32 34 35 36 35 31 31 33 36 39 43 48 52 53 56 59 60 59 58 56 52 50 50 55 58 61 62 64 66 67 66 64
40 41 41 42 42 42 43 43 41 40 41 43 44 44 42 40 40 39 38 38 36 33 28 23 22 23 23 26 27 24 22 23 25 22 22 29 28 21 22 21 17 20 24 22 20 22 22 18 21 22 19 19 21 23 27 30 32 34 35 36 32 28 30 33 35 37 39 44 48 50 54 58 58 59 58 57 55 51 50 52 55 59 61 62 64 66 66 65
40 41 41 41 42 42 43 43 41 40 40 42 44 45 43 41 39 39 38 38 37 35 32 25 22 22 24 26 27 25 23 23 27 26 24 29 27 20 21 20 16 19 23 23 21 22 22 20 20 22 20 19 21 21 25 28 31 34 34 33 31 32 35 34 33 35 36 39 43 45 51 55 57 59 59 56 56 53 50 49 50 54 58 61 63 64 65 65
40 40 40 41 42 42 43 43 42 41 40 41 43 44 45 43 40 40 39 38 37 36 34 29 24 22 24 27 28 26 24 24 25 25 25 29 26 20 21 20 16 19 22 24 24 22 23 22 20 21 22 21 21 21 20 23 28 32 35 35 34 35 35 33 34 34 34 36 39 42 47 53 56 60 59 56 55 54 50 49 48 49 53 58 60 61 63 65
40 40 40 40 41 41 43 43 43 42 40 40 42 43 45 45 42 40 39 39 38 36 34 30 25 23 24 28 29 27 25 25 25 24 26 28 24 20 22 20 19 21 22 24 25 23 24 24 20 21 24 22 20 18 15 17 23 29 34 35 35 34 32 31 31 31 31 33 36 39 44 50 54 57 57 55 54 53 51 50 49 48 49 53 57 60 62 64
41 41 40 40 40 40 42 43 43 42 40 40 42 42 44 45 44 42 40 39 38 37 35 30 26 24 24 26 29 28 25 26 26 25 26 26 22 21 23 21 20 22 22 22 24 25 25 23 20 22 26 22 16 14 12 15 20 25 31 34 34 33 31 30 28 27 28 30 33 37 42 46 48 51 53 54 53 51 50 49 48 48 47 49 54 58 61 63
42 41 40 39 39 39 40 41 41 42 41 40 42 42 43 45 44 42 40 39 39 38 36 31 26 25 24 25 28 29 26 25 26 25 25 24 22 23 24 21 20 21 20 18 22 24 24 24 22 22 26 24 17 13 11 15 19 22 26 30 32 32 29 27 26 25 24 25 27 32 38 40 42 45 48 50 51 50 49 48 47 48 48 48 50 55 60 62
42 41 40 40 39 39 39 40 40 41 40 40 41 42 43 44 44 43 40 39 39 38 36 32 26 24 24 24 28 30 27 25 25 25 25 23 21 24 25 22 19 19 18 17 20 23 23 25 24 21 23 24 19 12 9 13 18 21 22 24 29 31 28 25 24 24 25 25 25 28 33 32 32 38 44 46 48 49 49 48 47 47 48 49 50 54 59 62
42 42 41 40 39 39 39 39 40 40 39 39 40 41 42 44 44 43 40 39 39 38 36 33 27 23 23 23 27 30 29 26 24 24 26 22 19 23 25 21 18 16 16 17 20 23 23 25 24 21 21 21 17 12 7 8 12 17 18 18 23 26 25 24 23 23 25 25 24 26 28 25 24 31 40 44 45 47 47 47 46 46 47 48 51 54 58 61
43 42 41 40 40 40 39 39 39 39 39 39 39 41 42 44 45 43 40 39 39 38 37 34 29 24 22 23 26 29 29 28 25 24 24 21 18 21 23 20 17 14 15 18 19 21 23 25 25 21 19 19 16 12 8 5 6 10 14 16 18 20 23 23 22 22 23 22 22 22 17 17 22 29 36 42 43 44 44 45 46 46 46 47 50 52 55 59
43 43 42 41 40 40 39 39 40 39 39 39 38 40 41 43 45 43 40 38 39 37 36 36 32 26 22 22 24 26 27 28 27 23 23 21 19 20 20 19 17 13 13 18 18 17 20 24 25 20 16 17 15 14 11 5 2 2 10 16 18 19 21 21 20 22 20 17 20 20 12 15 22 28 34 38 40 40 41 42 44 45 45 45 46 48 51 55
44 44 43 41 41 41 40 40 41 40 40 39 38 39 40 42 45 44 40 37 38 37 36 36 34 29 25 24 23 23 23 25 26 24 22 21 19 19 20 19 17 13 13 19 21 19 18 20 24 20 14 14 12 12 14 11 9 6 6 11 14 16 17 18 19 18 14 14 19 20 13 15 23 28 31 34 35 36 37 37 40 41 42 44 45 46 48 51
44 44 43 42 41 41 41 41 41 41 40 39 39 39 39 41 44 45 41 37 36 36 35 35 35 31 28 25 24 23 21 22 25 24 23 21 18 18 20 19 16 13 13 17 21 23 21 19 20 17 13 12 10 9 10 10 9 8 6 6 6 8 11 14 16 13 12 16 18 15 12 16 23 24 26 30 32 34 34 35 37 38 39 42 44 44 45 47
45 45 44 42 41 41 41 41 41 41 41 40 40 39 39 41 44 45 41 37 35 35 34 33 34 32 29 26 25 25 23 21 22 22 22 21 17 17 19 19 17 15 15 16 18 21 22 21 21 18 14 14 10 7 6 5 5 5 3 2 1 4 7 10 13 13 15 17 14 10 10 14 20 20 20 26 32 33 32 32 34 35 38 40 42 43 44 45
46 46 44 42 40 40 41 41 40 40 41 41 40 39 39 40 43 45 42 37 35 35 33 31 31 31 29 26 26 27 26 25 23 21 20 20 16 15 16 16 16 16 16 16 17 18 19 22 24 23 20 17 12 7 5 2 2 2 1 2 4 6 7 7 9 12 16 15 11 11 10 10 15 17 17 23 30 31 30 31 31 32 36 39 41 42 43 44
46 46 45 42 39 39 39 40 39 39 40 41 41 40 39 39 40 44 44 38 35 34 33 30 30 29 27 26 25 26 26 27 25 20 18 18 17 16 15 13 14 17 15 14 15 15 17 19 21 23 25 22 14 9 9 5 1 2 3 2 2 4 5 4 5 10 13 12 11 12 10 6 8 12 16 23 30 31 31 31 30 31 35 39 40 41 42 43
46 46 45 42 38 37 38 38 38 38 38 40 40 40 40 39 39 42 44 40 35 34 33 30 28 28 25 23 24 25 25 25 23 20 18 17 17 16 14 12 14 16 14 13 13 13 15 17 18 19 22 22 17 11 8 5 2 3 4 4 3 3 4 4 4 7 8 8 8 10 8 5 6 10 17 24 30 33 32 30 30 32 34 36 37 39 41 42
45 45 45 44 39 36 37 37 37 37 38 39 40 40 40 41 39 40 41 40 36 34 32 30 27 27 25 22 21 22 22 22 21 20 18 18 17 16 14 13 13 13 12 13 13 13 15 16 17 18 19 19 18 14 8 4 1 2 3 3 3 2 4 5 6 8 9 9 9 9 6 4 6 11 18 25 30 34 34 31 29 30 31 33 35 37 40 40
Wind_Direction
6 2 358 354 349 345 340 334 329 323 318 312 307 302 297 294 291 288 286 285 284 282 280 277 273 269 266 264 261 260 258 257 256 254 252 251 250 248 246 245 244 242 242 241 241 241 240 238 238 238 238 237 238 238 239 240 241 242 244 243 240 238 237 235 233 230 228 226 223 220 219 219 222 224 224 224 224 226 230 228 224 223 221 223 231 237 241 245
3 1 358 355 351 347 342 338 333 328 323 317 311 306 302 298 294 292 290 288 286 284 282 280 278 274 271 268 266 264 262 260 258 256 254 252 252 251 249 247 245 244 242 241 240 241 241 240 238 238 238 237 237 237 238 238 239 241 242 244 242 239 239 237 235 235 231 228 225 224 223 221 222 224 226 226 225 226 229 229 224 223 221 221 226 231 237 243
0 359 358 355 352 348 345 341 337 333 329 323 317 311 306 302 298 296 295 293 290 288 285 283 281 279 277 275 272 268 266 264 262 260 258 255 252 252 251 249 247 245 244 242 241 240 240 240 239 238 238 237 237 237 237 237 238 239 240 242 242 241 241 238 236 236 234 230 227 226 226 225 224 226 227 227 227 228 229 230 228 226 224 221 223 229 233 238
359 358 357 355 352 348 345 342 338 335 332 327 322 317 311 306 301 298 297 295 293 293 291 288 285 282 281 279 277 274 270 268 265 263 262 260 257 254 252 251 250 248 246 244 242 240 240 239 239 238 238 237 237 237 237 237 237 238 239 241 242 242 243 240 237 236 235 232 228 227 228 227 227 228 229 227 228 229 229 230 229 229 229 225 224 229 234 237
357 357 356 353 350 347 344 341 338 335 332 329 325 322 317 313 308 303 300 298 297 296 295 293 290 287 283 281 279 277 275 272 269 267 265 263 261 258 255 252 251 249 247 246 243 242 240 239 239 238 238 237 237 237 237 237 237 238 238 240 241 242 242 241 240 238 236 233 230 228 228 227 228 230 230 228 228 230 230 230 229 231 232 230 227 228 234 237
356 356 355 352 349 347 344 341 338 336 333 330 327 324 321 317 313 309 306 303 301 300 300 298 296 294 290 285 281 279 277 275 273 271 267 265 262 260 258 256 253 250 248 247 245 243 241 239 238 238 237 237 236 236 237 237 237 238 238 238 239 240 241 241 240 239 236 234 231 228 228 227 228 230 230 230 229 231 232 230 230 232 234 234 231 228 233 237
356 355 354 351 349 347 345 342 339 337 334 331 328 325 322 319 315 312 309 307 305 304 304 303 301 299 296 291 285 281 279 277 275 273 270 267 265 263 260 258 256 253 250 247 246 244 242 241 239 238 237 236 236 236 236 236 237 238 238 237 238 239 240 240 239 239 237 235 232 230 230 229 228 228 230 231 230 232 233 232 230 232 235 237 237 233 232 237
355 355 353 351 349 347 345 343 341 338 335 333 330 327 324 320 317 314 312 310 309 308 307 305 303 301 299 296 291 285 280 278 276 275 273 270 267 265 263 261 259 256 253 250 247 245 243 242 240 239 237 236 236 235 235 235 236 237 237 237 237 238 239 239 239 239 238 237 236 233 231 229 229 229 229 230 231 233 234 235 233 232 234 237 240 237 234 237
354 353 352 351 349 348 346 344 341 339 337 334 331 328 326 322 319 317 314 313 312 311 309 308 305 304 302 301 297 292 286 282 279 278 276 273 269 265 263 261 260 258 256 253 250 247 244 242 241 240 239 237 236 235 235 235 235 236 236 236 237 237 238 238 239 239 238 237 237 236 233 229 230 232 230 228 230 232 234 236 235 233 235 236 238 238 235 237
352 352 352 351 349 348 346 344 342 340 338 336 333 330 328 325 322 319 317 316 314 314 312 310 308 307 306 305 305 303 299 294 289 286 283 280 275 270 265 261 258 257 255 253 252 249 246 243 242 240 239 239 237 236 235 235 235 235 236 236 236 237 237 238 238 238 238 237 236 236 236 233 233 234 230 227 229 233 234 236 236 235 236 236 237 238 236 236
351 351 351 350 349 348 346 345 343 341 339 337 334 332 329 327 324 321 319 318 317 315 314 313 313 312 310 310 313 315 313 309 304 299 294 289 284 278 273 267 262 258 255 253 251 249 247 245 243 241 239 239 238 237 236 235 235 235 235 236 236 236 237 238 238 238 238 238 237 236 236 236 234 233 228 226 230 234 236 237 238 239 238 239 239 239 238 237
351 351 351 350 349 348 347 345 343 342 340 339 336 333 331 328 326 323 321 320 317 316 316 316 314 312 311 311 313 315 315 313 311 307 301 296 290 284 279 274 268 263 259 255 252 249 247 245 243 241 240 239 238 237 237 235 234 234 235 236 236 235 235 236 237 238 238 238 238 237 237 236 233 230 227 228 231 234 238 239 239 240 240 241 240 239 239 238
350 351 351 350 349 348 347 346 344 343 341 340 338 335 332 330 328 325 323 321 318 318 317 315 312 310 310 310 310 311 312 313 313 312 309 304 296 287 279 274 269 265 261 257 254 250 248 245 243 241 240 239 237 237 236 236 235 234 234 235 235 236 235 235 236 238 238 238 238 238 238 235 231 229 229 230 231 233 237 240 241 241 241 240 238 237 237 238
350 351 351 350 349 348 347 347 345 344 342 341 339 336 334 332 329 327 325 322 320 319 316 312 309 309 310 311 312 311 313 316 319 320 320 316 308 297 283 273 267 263 259 256 254 251 248 246 243 241 239 238 237 237 236 235 234 234 234 234 234 236 236 235 235 237 238 238 238 238 238 235 231 230 231 231 231 232 235 239 241 241 241 240 237 236 237 240
350 350 350 349 349 348 348 347 346 345 344 342 341 338 336 334 331 329 326 323 321 319 315 310 309 310 312 315 315 314 317 322 325 327 326 322 317 310 297 279 265 258 256 254 252 250 247 244 242 240 239 237 237 236 236 235 234 233 233 233 233 234 235 234 234 235 236 237 238 238 238 234 231 230 231 232 231 231 232 235 239 240 240 239 238 236 236 240
350 350 350 349 349 349 349 348 347 346 345 344 343 340 338 336 333 331 328 324 321 317 315 313 313 314 316 317 317 317 322 327 330 329 327 323 321 319 309 292 272 256 252 250 249 248 246 243 239 237 237 236 235 235 235 235 234 233 232 232 232 233 233 233 233 234 234 235 236 237 236 233 231 232 232 231 230 230 230 231 235 238 238 238 237 236 235 238
350 349 349 349 349 350 350 349 348 347 346 345 344 342 339 337 334 332 328 323 320 319 319 319 318 318 318 319 318 320 326 331 332 329 325 323 326 328 319 301 281 261 254 250 247 245 245 243 239 236 234 234 234 233 234 234 233 233 232 232 232 232 233 232 232 233 233 234 235 237 237 233 232 233 232 231 230 229 228 228 231 234 236 237 236 236 235 236
349 349 349 349 350 350 351 351 350 348 347 346 345 343 340 338 336 333 328 324 322 321 322 321 321 321 322 321 319 324 331 333 332 326 322 325 333 338 330 309 288 270 262 257 250 244 243 242 240 236 233 232 232 231 232 232 232 232 232 232 232 231 232 232 232 232 232 233 233 235 236 235 233 234 233 230 229 228 227 227 229 231 234 235 235 235 234 235
349 349 348 349 350 351 352 351 351 350 348 346 346 344 341 338 336 333 329 326 322 320 320 321 321 322 324 323 322 328 333 334 332 323 320 330 338 342 340 326 302 281 271 266 259 251 244 241 240 238 235 232 231 231 231 231 230 231 231 231 231 231 231 231 232 231 231 232 232 233 235 236 235 234 233 231 229 228 226 225 227 229 232 234 233 233 234 233
349 348 348 349 350 352 352 352 352 352 349 347 346 344 342 339 337 334 331 326 321 318 318 319 319 320 323 323 323 329 332 333 332 323 321 332 337 340 342 339 323 298 282 274 267 260 251 244 240 239 236 234 233 231 231 230 229 229 229 230 230 230 230 231 231 232 231 231 232 232 233 235 236 234 233 231 229 227 226 224 225 226 229 232 233 232 233 232
349 348 349 350 351 352 353 353 353 353 351 349 347 345 343 340 338 335 331 326 322 319 317 317 318 320 324 323 325 329 329 332 335 327 324 330 333 336 338 340 335 317 299 286 274 266 259 250 244 241 238 235 234 233 232 230 229 229 229 229 230 230 230 230 231 231 232 231 230 231 232 234 235 234 232 231 229 227 225 224 224 225 227 230 232 231 231 232
349 349 349 350 351 353 353 353 353 353 353 352 350 347 345 342 339 335 331 327 324 320 317 317 320 323 326 325 326 328 327 332 338 331 327 329 328 332 333 333 334 326 311 299 284 272 263 255 248 244 241 237 235 234 233 231 229 229 229 229 230 230 230 231 230 231 232 232 230 230 231 232 233 233 232 231 229 226 225 224 223 224 226 228 231 230 229 231
349 349 350 351 352 353 353 353 353 353 354 354 352 350 347 344 341 337 332 328 326 322 319 319 321 326 329 329 329 329 328 333 339 335 331 330 327 329 330 329 330 326 317 309 300 285 269 260 252 246 243 240 237 235 234 233 231 230 229 229 230 230 231 231 230 230 232 232 231 230 231 232 232 232 232 231 230 227 225 224 223 223 224 226 229 230 229 230
349 350 351 352 353 353 353 353 353 353 354 354 354 352 350 346 344 340 332 329 327 322 319 320 323 327 332 335 336 332 330 333 338 336 332 333 331 331 330 328 328 324 318 314 310 299 280 268 259 251 245 242 240 237 236 235 233 231 229 229 229 230 232 231 231 230 231 232 231 231 231 232 231 231 231 230 230 229 226 224 223 223 223 224 227 228 227 228
350 351 351 352 353 353 354 353 353 353 354 354 354 353 351 349 346 342 335 330 327 322 320 322 324 327 332 339 341 337 335 335 337 334 330 333 334 333 332 330 331 327 319 316 315 312 295 277 268 259 250 244 242 239 237 236 234 233 231 229 228 228 230 231 230 230 230 231 231 231 232 232 231 231 231 230 230 229 227 225 223 222 223 224 225 226 226 226
351 352 352 353 353 354 354 354 353 353 353 353 354 353 352 350 348 344 338 332 327 322 321 323 324 325 330 338 341 340 338 336 335 330 327 332 331 330 332 331 333 331 324 320 321 321 304 282 270 264 257 250 244 240 238 236 234 232 231 230 229 228 228 229 230 229 228 229 230 231 232 232 231 230 230 229 229 229 227 226 223 222 223 224 225 225 225 225
351 352 353 353 354 354 354 354 353 353 353 353 353 353 352 351 349 346 341 334 327 324 323 323 324 326 329 334 340 342 340 337 334 327 322 328 328 327 331 332 333 333 330 325 323 321 305 283 270 264 260 254 248 243 240 237 235 233 232 231 231 230 229 229 231 230 227 226 228 230 232 233 231 229 230 230 229 228 227 225 223 222 222 223 224 224 225 226
351 352 353 354 354 354 354 354 353 352 353 353 353 353 352 351 350 347 344 337 330 328 326 325 325 327 330 332 336 342 344 339 333 327 320 322 325 327 334 335 332 332 331 327 325 319 306 289 271 262 257 254 250 246 244 240 237 234 232 232 232 232 231 230 232 231 228 226 226 227 231 234 232 228 228 230 229 228 227 225 223 222 222 223 223 223 225 227
351 352 353 354 354 354 354 354 353 353 353 352 353 353 353 352 351 349 346 340 334 331 328 327 327 327 330 333 334 339 346 343 334 330 324 321 324 327 335 339 333 332 331 328 326 317 310 305 284 264 255 253 250 248 246 242 239 236 233 233 233 234 233 233 234 232 230 228 225 224 230 235 233 228 226 230 230 228 227 226 224 222 222 223 222 222 224 226
350 351 353 354 354 354 354 353 353 353 353 353 353 353 353 353 352 350 348 344 338 332 329 330 329 328 329 333 334 337 344 345 338 336 333 326 325 327 335 341 335 336 336 329 323 317 316 318 305 279 257 250 250 247 244 241 240 238 236 234 234 234 234 236 237 235 234 230 224 222 227 235 236 230 225 227 230 229 228 227 225 223 222 222 222 221 222 224
350 351 352 353 354 354 354 353 353 354 354 354 354 353 352 353 353 351 350 347 340 334 331 332 333 331 327 327 333 339 342 344 342 341 341 337 331 329 335 339 335 337 341 334 322 320 321 319 315 298 260 245 245 245 242 240 240 239 238 236 235 235 235 236 238 238 237 232 224 222 226 232 236 232 225 224 228 228 228 226 224 223 222 222 222 221 221 222
349 350 352 353 354 354 353 352 353 354 354 354 353 353 353 354 354 352 351 348 344 338 334 334 337 335 328 326 332 337 340 342 342 340 344 345 339 335 336 337 333 334 342 340 327 324 324 314 315 310 271 246 242 242 240 239 240 239 239 238 236 236 235 236 237 239 239 233 225 223 226 230 234 233 226 222 224 227 227 226 224 222 222 221 222 221 220 221
349 350 351 353 353 353 352 352 353 354 354 354 353 353 354 354 354 352 351 349 345 341 337 336 338 338 335 333 333 335 337 342 341 336 341 347 343 340 338 336 333 334 339 343 335 330 323 309 312 313 290 258 245 243 241 239 239 239 239 238 237 238 238 238 238 240 240 235 228 225 228 231 232 233 229 222 222 226 228 227 226 223 221 221 221 220 219 219
349 350 351 352 353 352 352 352 353 353 354 354 354 354 355 355 355 353 351 349 346 342 337 335 338 339 339 339 339 337 339 345 345 338 341 346 342 338 339 336 334 334 337 342 339 336 331 312 309 309 301 279 254 246 244 240 239 238 237 238 237 237 239 241 242 242 240 237 232 229 231 232 230 231 231 225 220 224 226 226 226 225 222 221 221 220 219 219
349 349 350 352 352 352 351 352 352 353 353 353 354 356 356 356 355 354 352 351 348 344 339 334 335 339 340 341 342 342 342 345 346 342 344 344 339 337 340 338 335 336 340 343 341 340 342 323 307 306 301 288 266 250 245 241 240 239 237 238 236 237 242 245 245 245 243 239 236 233 232 232 229 229 230 227 223 221 223 225 226 225 223 222 221 221 220 219
349 349 350 351 352 352 351 351 352 352 352 352 354 356 357 357 356 354 353 352 350 348 345 337 330 334 341 343 344 346 344 342 341 341 342 340 337 339 343 340 340 343 346 347 342 341 348 337 316 313 304 289 275 259 248 242 240 238 237 238 238 237 241 242 242 244 245 244 240 236 234 233 230 230 229 229 226 222 221 223 225 225 223 222 222 221 221 220
349 349 349 351 352 352 352 351 350 350 351 353 354 355 355 357 356 356 354 353 351 349 348 344 334 333 340 344 348 349 344 340 339 341 342 341 340 344 345 343 344 347 350 349 341 337 344 344 328 319 310 297 288 272 256 246 240 238 237 236 234 233 235 238 239 241 244 247 245 239 236 233 231 230 229 229 229 225 222 223 225 225 224 222 221 221 221 221
349 348 349 351 352 352 352 351 349 349 350 352 354 354 354 356 357 356 355 353 352 350 349 348 342 337 340 343 348 351 345 339 339 341 342 342 344 347 346 348 347 346 350 349 341 332 334 341 337 322 316 311 301 289 271 254 241 237 236 232 230 232 235 239 243 245 247 250 248 243 238 234 230 229 228 228 230 228 223 223 224 225 225 224 222 220 221 221
349 349 349 351 352 352 352 351 349 349 350 351 353 354 355 355 356 356 356 354 353 352 350 350 345 343 345 342 345 353 349 341 342 346 344 345 351 352 347 351 352 348 348 346 341 332 327 336 342 329 325 323 308 295 279 259 245 237 235 232 230 232 235 240 246 249 251 253 251 247 242 237 231 229 228 228 230 229 225 223 223 223 224 224 222 220 220 220
350 349 348 349 351 352 351 350 349 349 349 349 351 353 355 356 356 356 356 355 354 353 352 352 348 346 347 342 342 351 353 347 348 351 348 350 359 358 348 348 349 346 347 344 339 333 327 335 346 335 332 334 316 290 263 246 243 238 235 233 231 232 234 239 245 248 251 252 250 248 245 241 234 228 228 229 229 230 229 226 224 223 223 224 223 222 220 220
351 348 347 348 350 351 350 350 350 349 348 348 349 352 355 357 357 357 356 355 354 354 353 353 351 348 346 341 341 348 355 353 351 352 352 352 359 0 353 348 344 344 353 350 336 333 331 338 349 343 336 338 327 297 258 235 236 236 234 231 229 230 232 236 243 248 250 248 245 246 246 243 236 229 227 228 228 229 229 227 225 224 224 223 223 222 221 219
350 348 347 348 349 350 349 349 350 349 348 348 349 351 354 357 358 357 356 355 353 353 354 353 352 350 345 341 342 348 354 357 353 353 356 353 353 358 355 351 347 346 356 356 341 337 337 340 349 351 342 341 339 318 270 236 236 236 234 230 227 229 231 237 246 252 252 248 240 242 245 241 235 229 226 226 227 227 227 227 225 224 223 222 222 221 220 218
350 349 348 347 348 349 349 349 349 349 348 348 349 350 352 356 358 358 356 355 354 354 353 352 352 353 347 343 345 348 352 358 358 356 357 355 350 351 351 352 354 350 353 357 347 341 343 344 348 356 352 348 351 341 299 254 245 239 232 228 226 228 230 236 246 250 249 243 234 238 242 234 226 225 222 223 226 226 225 224 224 223 222 222 222 222 220 218
351 350 349 347 346 348 349 349 348 349 349 349 349 350 352 355 357 358 357 355 354 354 353 352 353 355 352 347 349 351 350 355 360 358 356 357 355 350 347 350 356 356 354 357 352 342 345 351 350 354 1 2 5 2 337 294 272 249 227 221 221 222 228 235 242 241 236 230 228 234 232 209 209 215 215 218 222 223 223 222 222 222 221 223 224 223 223 220
351 352 350 347 346 348 349 349 348 349 350 350 350 350 351 354 356 358 358 356 354 354 353 352 353 355 356 352 352 354 351 348 353 358 356 357 1 355 349 351 355 357 355 359 360 348 345 353 352 352 3 11 19 27 22 16 356 245 211 212 215 219 227 234 234 229 224 217 224 233 218 185 196 206 209 212 217 220 221 220 220 221 221 222 224 224 225 223
351 351 350 348 347 347 348 349 349 350 350 350 351 350 350 352 355 357 358 357 355 354 352 352 353 353 355 355 354 356 354 345 346 356 358 358 5 2 354 353 354 353 358 4 8 4 352 349 350 351 2 16 32 44 41 46 60 80 155 192 207 216 223 224 222 222 221 221 230 241 237 201 195 200 204 208 213 217 219 218 219 220 220 221 222 222 223 224
348 350 350 349 347 346 347 348 349 349 350 350 350 351 350 351 353 356 357 357 356 356 353 352 352 351 352 354 354 356 359 351 345 351 357 359 7 9 0 356 352 350 359 7 12 13 8 359 355 353 354 8 36 62 52 49 60 74 104 137 173 208 222 227 230 231 234 237 239 247 243 208 197 201 202 203 210 215 217 218 219 221 221 221 221 221 222 223
346 349 350 349 348 346 346 347 348 348 349 349 350 351 350 350 352 355 357 357 357 357 355 351 350 350 349 352 355 355 358 358 352 352 357 359 5 12 6 359 354 348 350 359 7 10 10 8 8 7 355 353 17 63 69 55 57 70 109 154 244 269 261 250 248 244 240 242 240 240 233 202 196 204 203 204 211 213 213 216 218 220 222 221 220 220 220 221
344 347 349 349 348 346 345 345 346 347 348 348 348 350 351 350 351 352 356 357 357 357 357 353 349 347 346 348 353 355 355 358 1 360 360 0 2 9 10 4 359 354 349 355 4 8 11 10 10 16 15 7 7 15 15 9 29 34 354 272 293 306 297 266 247 241 239 239 232 229 228 197 196 208 206 209 215 213 211 213 213 216 220 220 219 219 218 219
343 344 347 348 348 346 344 343 344 347 348 347 346 348 350 351 351 351 354 357 357 356 357 356 351 347 345 345 349 355 356 356 2 5 3 5 5 7 11 8 3 0 357 359 8 16 22 18 12 16 20 19 14 352 340 345 337 340 344 341 340 329 319 293 245 237 238 238 232 235 237 214 207 211 201 208 218 216 213 213 211 213 217 217 218 218 217 218
341 343 345 346 347 346 344 342 343 346 348 347 346 347 348 350 352 352 352 354 357 356 355 356 354 348 344 343 346 355 358 355 360 5 6 13 15 9 9 7 2 3 3 3 9 14 19 21 17 12 9 13 17 7 356 15 20 322 324 332 347 332 313 313 278 248 249 251 244 247 251 237 227 210 192 201 216 218 215 213 212 215 216 215 217 218 216 215
340 342 343 344 347 347 344 342 342 345 348 347 345 346 347 349 352 353 351 352 355 356 353 354 355 350 345 343 345 354 360 357 359 1 7 20 24 17 19 21 13 13 11 5 5 4 4 11 13 7 3 8 12 10 15 38 35 302 312 302 309 313 291 292 286 271 268 268 263 269 283 271 241 214 193 198 213 218 217 214 213 215 217 217 218 217 214 211
Height
5787 5785 5783 5782 5780 5779 5777 5775 5774 5772 5770 5768 5766 5764 5762 5761 5759 5757 5756 5755 5754 5753 5752 5751 5750 5749 5749 5748 5747 5746 5746 5745 5746 5747 5748 5749 5749 5751 5752 5754 5756 5758 5760 5762 5765 5766 5768 5771 5773 5775 5777 5779 5781 5784 5787 5788 5789 5790 5790 5791 5792 5797 5801 5808 5814 5818 5823 5827 5830 5832 5832 5834 5835 5835 5838 5840 5844 5847 5848 5852 5856 5858 5860 5861 5862 5863 5864 5865
5785 5784 5782 5780 5779 5777 5775 5773 5771 5770 5768 5766 5764 5762 5760 5758 5756 5754 5753 5752 5750 5749 5747 5746 5745 5744 5744 5743 5743 5742 5741 5740 5741 5742 5742 5743 5743 5744 5745 5747 5749 5751 5753 5756 5758 5760 5761 5764 5767 5769 5771 5773 5775 5778 5780 5782 5783 5784 5786 5785 5786 5793 5798 5805 5812 5815 5819 5823 5826 5828 5829 5830 5831 5832 5834 5836 5839 5842 5845 5848 5852 5855 5857 5859 5860 5861 5862 5863
5784 5783 5781 5779 5777 5775 5773 5771 5769 5767 5765 5763 5761 5759 5756 5754 5752 5751 5749 5747 5745 5744 5742 5741 5740 5739 5739 5738 5738 5737 5737 5736 5736 5736 5736 5737 5738 5738 5739 5740 5742 5744 5746 5748 5751 5753 5755 5757 5760 5763 5765 5767 5769 5771 5773 5776 5777 5779 5780 5779 5783 5791 5795 5800 5806 5809 5815 5819 5822 5824 5825 5825 5828 5829 5829 5832 5834 5837 5840 5844 5849 5852 5854 5856 5857 5858 5859 5860
5783 5781 5779 5777 5775 5773 5771 5769 5767 5764 5762 5760 5758 5755 5753 5751 5749 5747 5745 5743 5741 5740 5738 5737 5735 5735 5734 5733 5732 5732 5731 5731 5730 5730 5730 5731 5732 5733 5733 5734 5735 5737 5739 5740 5743 5745 5747 5750 5752 5756 5758 5760 5763 5764 5766 5769 5771 5772 5773 5776 5782 5788 5789 5792 5798 5803 5808 5813 5816 5819 5820 5821 5824 5824 5824 5828 5829 5831 5836 5841 5845 5848 5851 5853 5854 5855 5856 5857
5782 5780 5778 5776 5774 5772 5769 5767 5764 5762 5759 5757 5754 5752 5749 5747 5745 5743 5741 5739 5737 5735 5734 5732 5731 5730 5730 5729 5728 5727 5726 5725 5725 5725 5725 5726 5726 5726 5727 5728 5729 5730 5731 5733 5735 5737 5740 5742 5744 5747 5750 5753 5756 5757 5760 5763 5764 5766 5769 5774 5780 5781 5781 5785 5791 5797 5802 5806 5810 5812 5814 5817 5820 5820 5821 5823 5825 5827 5832 5837 5842 5845 5846 5849 5851 5853 5854 5855
5781 5779 5777 5775 5772 5770 5767 5765 5762 5759 5756 5754 5751 5748 5745 5743 5740 5738 5737 5735 5733 5731 5729 5727 5726 5725 5725 5724 5723 5723 5721 5720 5721 5720 5719 5719 5719 5719 5720 5721 5722 5723 5724 5725 5727 5729 5731 5734 5736 5739 5742 5745 5748 5750 5754 5756 5758 5760 5765 5770 5772 5772 5773 5778 5784 5789 5794 5798 5802 5806 5809 5812 5813 5814 5817 5819 5821 5825 5828 5833 5839 5841 5841 5843 5847 5850 5851 5852
5780 5778 5776 5773 5771 5768 5765 5763 5760 5757 5754 5750 5748 5745 5742 5739 5736 5734 5732 5730 5729 5727 5725 5723 5721 5720 5719 5719 5718 5718 5716 5715 5715 5715 5714 5714 5713 5714 5714 5714 5715 5716 5717 5718 5719 5721 5723 5726 5728 5731 5734 5737 5740 5744 5747 5749 5751 5754 5759 5763 5763 5764 5767 5773 5777 5781 5786 5790 5796 5801 5803 5805 5807 5810 5813 5814 5818 5822 5823 5829 5834 5836 5837 5839 5842 5846 5849 5850
5779 5777 5774 5772 5769 5766 5763 5760 5757 5754 5751 5748 5744 5741 5739 5736 5733 5730 5728 5726 5724 5722 5721 5719 5717 5716 5715 5714 5713 5713 5711 5710 5709 5709 5709 5708 5708 5708 5708 5708 5708 5709 5710 5711 5712 5714 5716 5718 5720 5723 5726 5729 5732 5736 5739 5743 5745 5748 5752 5754 5756 5758 5762 5767 5770 5775 5779 5784 5789 5793 5796 5800 5803 5806 5807 5810 5815 5818 5820 5824 5828 5831 5833 5835 5838 5842 5847 5848
5777 5775 5772 5770 5767 5764 5760 5757 5754 5751 5748 5744 5741 5738 5735 5732 5729 5727 5724 5722 5720 5718 5716 5715 5713 5712 5711 5710 5709 5708 5707 5705 5705 5704 5703 5703 5702 5702 5702 5702 5702 5702 5702 5703 5704 5706 5709 5711 5713 5716 5719 5721 5725 5729 5732 5736 5738 5741 5744 5747 5750 5753 5757 5760 5763 5768 5772 5777 5782 5786 5790 5795 5799 5799 5801 5806 5811 5813 5816 5818 5822 5826 5828 5831 5833 5838 5843 5845
5776 5773 5771 5768 5764 5761 5758 5755 5751 5748 5745 5741 5738 5735 5732 5729 5726 5723 5721 5718 5716 5714 5712 5711 5709 5708 5707 5706 5705 5704 5703 5702 5701 5700 5699 5697 5696 5696 5695 5695 5694 5694 5695 5696 5697 5699 5702 5704 5706 5709 5712 5714 5718 5721 5725 5728 5731 5735 5737 5740 5745 5748 5751 5754 5757 5760 5764 5770 5775 5779 5784 5789 5793 5793 5796 5804 5807 5808 5811 5813 5817 5821 5823 5826 5829 5834 5839 5841
5775 5772 5769 5766 5763 5759 5756 5752 5748 5745 5742 5738 5735 5731 5728 5725 5723 5720 5717 5715 5712 5710 5709 5707 5706 5705 5704 5703 5702 5701 5700 5699 5698 5697 5695 5693 5692 5691 5690 5690 5689 5688 5688 5689 5690 5692 5694 5697 5700 5702 5705 5707 5711 5714 5717 5721 5725 5728 5730 5734 5739 5742 5745 5747 5750 5754 5758 5763 5769 5774 5778 5782 5785 5785 5792 5801 5802 5803 5805 5808 5813 5816 5819 5822 5826 5829 5833 5836
5773 5771 5768 5764 5761 5757 5754 5750 5746 5742 5739 5736 5732 5728 5725 5722 5720 5717 5714 5712 5710 5707 5706 5704 5703 5702 5701 5700 5699 5697 5696 5695 5694 5693 5691 5689 5687 5686 5684 5684 5684 5683 5682 5682 5683 5685 5687 5689 5692 5695 5697 5701 5705 5707 5709 5714 5718 5721 5724 5728 5731 5734 5737 5740 5744 5748 5751 5756 5762 5767 5769 5771 5775 5780 5789 5795 5796 5799 5800 5803 5808 5811 5815 5818 5821 5825 5828 5831
5772 5769 5766 5763 5759 5755 5751 5748 5744 5740 5736 5733 5729 5726 5723 5720 5717 5714 5712 5709 5707 5705 5703 5701 5700 5699 5698 5697 5696 5694 5693 5692 5690 5688 5687 5685 5683 5681 5679 5678 5677 5677 5676 5676 5677 5679 5681 5683 5685 5687 5691 5694 5697 5698 5701 5707 5710 5714 5718 5720 5724 5726 5729 5735 5739 5742 5745 5750 5755 5759 5758 5762 5769 5778 5785 5787 5791 5795 5796 5798 5802 5806 5810 5813 5817 5820 5823 5826
5771 5768 5764 5761 5757 5753 5749 5745 5741 5737 5733 5730 5727 5723 5720 5717 5714 5712 5709 5707 5704 5702 5701 5699 5698 5696 5695 5694 5693 5691 5690 5688 5685 5683 5681 5678 5676 5675 5673 5671 5671 5670 5670 5669 5670 5673 5675 5677 5679 5681 5684 5686 5689 5692 5695 5699 5702 5707 5709 5712 5716 5719 5722 5729 5734 5736 5739 5743 5748 5750 5750 5755 5766 5774 5778 5781 5787 5791 5793 5795 5797 5801 5805 5809 5812 5816 5819 5821
5769 5766 5762 5759 5755 5751 5747 5743 5739 5734 5731 5727 5724 5720 5717 5715 5712 5709 5707 5704 5702 5700 5698 5697 5695 5694 5692 5691 5689 5688 5686 5684 5681 5678 5675 5672 5669 5667 5665 5664 5663 5663 5663 5663 5663 5666 5668 5670 5673 5674 5676 5679 5682 5685 5688 5691 5694 5698 5701 5704 5709 5711 5714 5721 5727 5729 5732 5736 5740 5741 5742 5750 5760 5766 5770 5775 5781 5785 5789 5791 5793 5795 5800 5804 5807 5811 5815 5817
5767 5764 5761 5757 5753 5749 5745 5740 5736 5732 5728 5725 5722 5718 5715 5712 5709 5707 5704 5702 5700 5698 5697 5695 5693 5691 5689 5687 5686 5684 5683 5680 5677 5674 5671 5668 5665 5661 5659 5657 5656 5656 5656 5656 5657 5659 5661 5663 5666 5668 5670 5672 5675 5678 5681 5683 5687 5690 5693 5696 5700 5702 5706 5713 5718 5721 5725 5729 5731 5733 5736 5745 5753 5757 5762 5769 5774 5779 5783 5786 5788 5790 5794 5798 5802 5806 5810 5812
5766 5762 5759 5755 5751 5747 5743 5738 5734 5729 5726 5722 5719 5716 5713 5710 5707 5705 5702 5700 5698 5696 5694 5692 5690 5689 5687 5685 5683 5682 5680 5677 5674 5671 5668 5665 5662 5658 5654 5652 5651 5650 5650 5650 5651 5652 5654 5657 5660 5662 5664 5666 5668 5671 5673 5675 5679 5682 5685 5688 5691 5695 5700 5705 5709 5713 5718 5721 5725 5728 5731 5738 5745 5749 5755 5762 5767 5772 5777 5780 5783 5785 5788 5793 5797 5801 5805 5808
5764 5761 5757 5753 5749 5745 5741 5736 5732 5727 5723 5720 5717 5714 5710 5708 5705 5702 5700 5698 5696 5694 5692 5690 5688 5686 5685 5683 5681 5679 5677 5675 5672 5668 5665 5663 5660 5656 5652 5649 5647 5647 5646 5645 5646 5647 5648 5651 5654 5656 5658 5659 5661 5663 5665 5668 5672 5675 5678 5681 5684 5688 5693 5697 5700 5705 5711 5714 5718 5723 5725 5732 5739 5743 5748 5755 5760 5765 5770 5775 5778 5781 5783 5787 5791 5795 5799 5803
5763 5759 5755 5751 5747 5743 5739 5734 5730 5726 5721 5718 5715 5712 5709 5706 5703 5701 5698 5696 5694 5692 5690 5689 5687 5685 5683 5680 5679 5677 5675 5672 5669 5666 5663 5661 5658 5654 5650 5646 5643 5643 5643 5642 5642 5643 5643 5645 5647 5650 5652 5653 5654 5656 5658 5661 5665 5668 5671 5674 5677 5681 5685 5689 5693 5698 5703 5706 5710 5716 5720 5725 5730 5735 5741 5748 5753 5757 5764 5769 5772 5775 5778 5781 5786 5790 5794 5798
5761 5758 5754 5750 5745 5741 5737 5733 5729 5725 5720 5716 5712 5709 5706 5703 5701 5698 5696 5694 5692 5690 5689 5687 5685 5683 5681 5679 5676 5674 5672 5669 5667 5663 5661 5658 5656 5652 5648 5644 5641 5640 5640 5639 5639 5638 5639 5640 5642 5644 5646 5647 5648 5651 5653 5655 5659 5662 5664 5667 5670 5674 5678 5683 5687 5691 5695 5698 5703 5710 5715 5716 5719 5728 5734 5740 5746 5751 5756 5762 5766 5769 5773 5776 5780 5785 5790 5793
5760 5756 5752 5748 5744 5739 5735 5731 5727 5723 5719 5715 5711 5707 5704 5701 5698 5695 5693 5692 5690 5688 5686 5685 5683 5681 5679 5676 5674 5671 5669 5667 5664 5661 5658 5656 5653 5650 5646 5643 5640 5638 5637 5636 5635 5635 5635 5636 5637 5638 5640 5641 5643 5645 5646 5650 5653 5655 5658 5661 5664 5669 5673 5678 5682 5685 5686 5689 5696 5703 5707 5708 5712 5721 5727 5732 5738 5744 5750 5756 5760 5764 5767 5771 5775 5780 5785 5789
5758 5755 5750 5746 5742 5738 5734 5729 5725 5722 5718 5714 5710 5707 5703 5700 5697 5694 5691 5689 5687 5686 5684 5682 5680 5679 5676 5674 5672 5669 5666 5664 5661 5659 5656 5654 5651 5648 5645 5642 5639 5636 5635 5633 5632 5631 5631 5632 5632 5632 5634 5636 5637 5638 5641 5644 5647 5650 5654 5657 5660 5664 5669 5673 5676 5679 5678 5682 5691 5696 5697 5700 5705 5712 5718 5724 5731 5738 5744 5749 5754 5759 5762 5766 5769 5774 5779 5783
5757 5753 5749 5745 5740 5736 5732 5728 5724 5720 5716 5713 5709 5706 5702 5698 5695 5692 5689 5687 5685 5683 5681 5680 5678 5676 5674 5671 5669 5667 5664 5661 5659 5656 5654 5651 5648 5646 5643 5640 5638 5635 5633 5631 5629 5629 5628 5627 5627 5627 5628 5630 5632 5633 5636 5639 5642 5645 5649 5652 5657 5661 5664 5667 5669 5671 5672 5676 5684 5688 5689 5692 5697 5704 5710 5717 5724 5731 5737 5743 5748 5752 5756 5761 5765 5769 5775 5779
5755 5751 5747 5743 5739 5734 5730 5726 5722 5718 5714 5711 5707 5704 5701 5697 5693 5690 5687 5685 5683 5681 5679 5677 5676 5674 5672 5669 5667 5664 5661 5659 5656 5654 5652 5649 5646 5644 5641 5638 5636 5633 5631 5629 5627 5626 5625 5624 5623 5623 5624 5626 5627 5630 5632 5635 5638 5641 5644 5648 5653 5657 5658 5660 5663 5664 5666 5671 5677 5681 5683 5684 5690 5696 5703 5712 5718 5724 5731 5737 5742 5747 5751 5756 5759 5764 5769 5774
5754 5750 5746 5742 5737 5733 5729 5724 5720 5716 5713 5709 5706 5702 5699 5695 5692 5689 5685 5683 5681 5678 5677 5675 5673 5671 5669 5667 5665 5661 5659 5656 5654 5652 5649 5647 5644 5641 5639 5636 5633 5631 5629 5626 5625 5624 5622 5621 5621 5620 5621 5621 5623 5626 5629 5631 5633 5635 5639 5643 5648 5650 5650 5652 5655 5658 5661 5666 5672 5675 5675 5676 5683 5690 5697 5705 5711 5716 5724 5731 5736 5742 5747 5751 5754 5758 5764 5768
5753 5749 5744 5740 5736 5732 5727 5723 5719 5715 5711 5708 5704 5701 5697 5694 5690 5687 5684 5681 5678 5676 5674 5673 5671 5669 5667 5665 5663 5659 5656 5653 5651 5649 5647 5644 5641 5639 5637 5634 5631 5629 5626 5624 5623 5621 5620 5618 5617 5617 5617 5618 5619 5622 5623 5624 5626 5630 5634 5638 5640 5640 5642 5645 5648 5650 5656 5662 5666 5667 5667 5669 5676 5684 5691 5698 5703 5709 5717 5724 5731 5738 5742 5746 5750 5755 5759 5763
5751 5747 5743 5739 5734 5730 5726 5722 5718 5714 5710 5706 5702 5699 5696 5692 5688 5685 5682 5679 5677 5674 5672 5670 5669 5667 5665 5663 5661 5657 5654 5651 5649 5647 5644 5642 5639 5636 5635 5631 5629 5627 5624 5621 5620 5619 5617 5615 5614 5613 5613 5614 5615 5616 5617 5619 5623 5627 5630 5632 5632 5634 5637 5640 5641 5644 5651 5657 5658 5658 5661 5663 5668 5679 5686 5690 5696 5702 5709 5718 5726 5732 5737 5741 5746 5751 5755 5759
5750 5746 5742 5737 5733 5729 5725 5721 5717 5713 5709 5705 5701 5698 5694 5690 5687 5683 5680 5677 5675 5672 5670 5668 5666 5665 5663 5660 5658 5655 5653 5650 5647 5644 5642 5640 5636 5634 5633 5630 5626 5624 5621 5618 5617 5616 5613 5611 5610 5609 5609 5610 5611 5612 5613 5617 5621 5624 5625 5626 5627 5630 5633 5635 5635 5639 5647 5649 5649 5654 5658 5657 5661 5675 5681 5682 5688 5695 5702 5713 5721 5727 5732 5737 5742 5747 5751 5755
5749 5745 5740 5736 5732 5728 5724 5720 5716 5711 5707 5703 5700 5696 5693 5689 5685 5682 5678 5675 5673 5670 5667 5665 5664 5662 5660 5658 5655 5653 5650 5648 5645 5642 5640 5637 5635 5632 5631 5628 5625 5622 5619 5616 5614 5612 5610 5608 5606 5605 5606 5606 5607 5609 5611 5614 5616 5618 5619 5621 5624 5626 5628 5630 5630 5634 5639 5639 5644 5653 5655 5652 5655 5667 5674 5675 5681 5691 5700 5709 5716 5722 5728 5732 5737 5742 5746 5750
5747 5743 5739 5735 5731 5727 5723 5719 5715 5711 5706 5702 5698 5695 5691 5688 5684 5680 5677 5674 5671 5668 5666 5663 5661 5660 5658 5656 5653 5650 5648 5646 5643 5640 5638 5635 5633 5630 5628 5626 5623 5620 5618 5614 5612 5609 5607 5605 5602 5602 5603 5603 5603 5605 5607 5610 5611 5612 5614 5617 5620 5621 5624 5625 5625 5629 5630 5630 5642 5652 5652 5649 5648 5655 5667 5671 5678 5689 5696 5701 5709 5716 5721 5726 5732 5737 5741 5745
5746 5742 5738 5734 5730 5726 5722 5718 5714 5710 5705 5701 5697 5694 5690 5686 5682 5678 5675 5672 5669 5667 5664 5662 5659 5657 5655 5654 5652 5648 5646 5644 5641 5639 5636 5634 5631 5628 5626 5624 5620 5618 5616 5612 5609 5607 5605 5602 5599 5598 5598 5598 5599 5600 5603 5606 5606 5608 5610 5613 5615 5617 5619 5619 5620 5622 5621 5626 5642 5650 5648 5645 5639 5645 5661 5669 5675 5682 5686 5692 5701 5708 5715 5720 5726 5731 5736 5739
5744 5740 5737 5733 5728 5725 5721 5717 5713 5709 5705 5700 5696 5693 5689 5685 5681 5677 5673 5670 5667 5665 5663 5661 5658 5656 5653 5651 5649 5647 5644 5642 5639 5637 5634 5632 5629 5626 5623 5621 5618 5615 5613 5610 5607 5605 5603 5600 5597 5596 5594 5594 5595 5596 5599 5601 5602 5604 5607 5608 5610 5612 5613 5613 5614 5616 5616 5625 5639 5643 5640 5636 5633 5640 5655 5664 5670 5674 5679 5686 5694 5701 5707 5713 5718 5724 5729 5733
5743 5739 5735 5731 5727 5724 5720 5717 5713 5708 5704 5700 5696 5692 5688 5683 5679 5675 5672 5668 5665 5663 5661 5659 5657 5654 5651 5649 5647 5645 5643 5641 5637 5635 5633 5630 5628 5624 5621 5619 5616 5613 5610 5608 5605 5603 5601 5598 5595 5594 5592 5592 5592 5593 5596 5598 5599 5601 5602 5605 5607 5608 5608 5609 5611 5613 5615 5623 5632 5636 5633 5628 5630 5638 5648 5660 5668 5671 5676 5683 5688 5694 5700 5705 5711 5716 5721 5726
5742 5738 5734 5730 5726 5723 5719 5715 5712 5708 5703 5699 5696 5691 5687 5682 5678 5674 5670 5666 5663 5661 5659 5657 5655 5652 5649 5647 5645 5643 5641 5639 5636 5633 5631 5628 5626 5623 5620 5617 5614 5612 5609 5606 5603 5601 5599 5596 5593 5592 5591 5590 5590 5591 5592 5594 5595 5596 5599 5600 5601 5603 5605 5607 5609 5610 5613 5619 5624 5627 5623 5621 5629 5637 5644 5657 5665 5667 5671 5676 5681 5687 5693 5699 5704 5709 5714 5720
5740 5737 5733 5729 5725 5721 5717 5714 5710 5707 5703 5699 5695 5690 5686 5682 5678 5674 5669 5666 5663 5660 5657 5655 5654 5652 5649 5646 5643 5641 5638 5636 5634 5632 5629 5626 5623 5621 5618 5615 5613 5611 5607 5604 5601 5599 5598 5595 5591 5589 5589 5588 5588 5588 5588 5590 5591 5592 5594 5594 5597 5602 5604 5606 5607 5608 5610 5612 5613 5616 5616 5618 5628 5635 5642 5652 5658 5661 5666 5670 5675 5680 5687 5693 5698 5703 5709 5715
5739 5736 5732 5728 5724 5720 5716 5712 5709 5706 5702 5698 5693 5689 5685 5682 5677 5673 5669 5665 5662 5659 5656 5654 5652 5650 5648 5645 5642 5639 5637 5634 5632 5631 5628 5624 5621 5619 5616 5614 5612 5610 5606 5603 5600 5598 5596 5593 5589 5587 5587 5585 5585 5585 5585 5586 5587 5588 5589 5591 5597 5601 5600 5600 5602 5603 5605 5604 5606 5611 5614 5619 5627 5633 5639 5646 5651 5657 5663 5666 5670 5676 5682 5688 5692 5698 5704 5710
5739 5735 5731 5727 5723 5719 5715 5711 5708 5705 5701 5697 5693 5688 5685 5681 5677 5673 5668 5664 5661 5657 5655 5653 5650 5648 5646 5644 5641 5638 5635 5633 5630 5628 5626 5623 5619 5617 5615 5612 5610 5608 5605 5601 5599 5596 5594 5592 5588 5585 5584 5583 5582 5582 5582 5582 5583 5584 5586 5589 5593 5593 5592 5593 5596 5598 5599 5599 5603 5609 5613 5618 5624 5628 5634 5641 5645 5652 5659 5663 5666 5671 5676 5681 5687 5693 5699 5704
5737 5734 5730 5726 5722 5718 5714 5710 5706 5703 5700 5696 5692 5688 5684 5680 5676 5672 5667 5663 5659 5656 5653 5651 5648 5646 5644 5642 5640 5637 5634 5632 5630 5627 5624 5621 5618 5616 5613 5610 5608 5606 5603 5600 5598 5595 5592 5590 5587 5583 5581 5580 5579 5578 5578 5578 5579 5580 5582 5584 5586 5586 5588 5591 5592 5595 5597 5598 5601 5606 5609 5614 5618 5622 5630 5636 5640 5647 5655 5658 5662 5666 5671 5675 5681 5687 5692 5697
5736 5733 5729 5725 5722 5717 5713 5709 5706 5702 5698 5695 5691 5688 5683 5678 5674 5671 5667 5662 5659 5655 5652 5649 5647 5645 5643 5639 5637 5636 5634 5631 5628 5625 5622 5619 5617 5614 5611 5609 5606 5604 5602 5599 5596 5593 5590 5588 5586 5582 5579 5578 5576 5574 5574 5574 5575 5576 5577 5579 5582 5584 5587 5589 5591 5594 5596 5597 5599 5602 5605 5607 5612 5619 5628 5633 5637 5642 5649 5653 5657 5661 5666 5670 5674 5680 5685 5690
5735 5731 5728 5724 5721 5717 5713 5709 5705 5701 5697 5694 5690 5687 5683 5678 5673 5669 5665 5661 5658 5654 5651 5648 5646 5644 5642 5639 5636 5635 5633 5630 5626 5624 5621 5618 5616 5613 5610 5607 5605 5603 5601 5598 5596 5592 5589 5587 5585 5581 5578 5576 5574 5572 5571 5571 5571 5572 5574 5577 5579 5582 5585 5587 5589 5591 5593 5594 5596 5598 5600 5603 5610 5618 5625 5629 5633 5638 5644 5649 5653 5657 5660 5663 5668 5674 5679 5684
5734 5730 5727 5723 5720 5716 5712 5708 5704 5700 5697 5693 5689 5686 5682 5678 5673 5668 5664 5660 5657 5653 5650 5648 5645 5642 5640 5638 5635 5633 5632 5629 5626 5623 5621 5618 5615 5612 5609 5606 5604 5602 5600 5598 5595 5592 5588 5585 5583 5580 5577 5574 5572 5570 5569 5569 5569 5569 5571 5574 5577 5580 5583 5585 5587 5589 5591 5591 5593 5594 5595 5599 5608 5616 5621 5624 5629 5634 5639 5644 5649 5652 5655 5658 5662 5666 5671 5676
5733 5730 5726 5722 5718 5715 5711 5708 5704 5700 5696 5693 5689 5685 5681 5677 5673 5668 5664 5660 5656 5652 5649 5646 5644 5642 5640 5637 5634 5632 5630 5629 5626 5623 5620 5617 5614 5612 5609 5606 5603 5601 5600 5598 5595 5592 5588 5585 5582 5579 5576 5573 5571 5568 5567 5567 5567 5568 5570 5573 5575 5577 5581 5584 5586 5588 5588 5588 5590 5591 5591 5597 5606 5613 5617 5621 5624 5629 5633 5638 5643 5646 5649 5652 5654 5657 5661 5666
5733 5729 5725 5721 5718 5714 5711 5706 5703 5700 5696 5692 5688 5684 5681 5677 5673 5668 5664 5659 5655 5651 5648 5646 5644 5642 5639 5637 5634 5631 5629 5628 5625 5622 5620 5617 5615 5611 5609 5606 5604 5602 5600 5597 5594 5591 5588 5585 5581 5579 5576 5573 5570 5568 5567 5566 5566 5567 5569 5572 5574 5577 5581 5583 5584 5585 5585 5585 5587 5588 5589 5596 5604 5608 5613 5617 5620 5624 5628 5633 5637 5640 5642 5645 5648 5650 5654 5660
5732 5728 5724 5720 5717 5714 5710 5706 5702 5699 5695 5691 5687 5683 5679 5676 5673 5669 5664 5659 5655 5651 5648 5645 5643 5642 5639 5636 5634 5631 5628 5626 5624 5622 5620 5617 5615 5612 5609 5606 5604 5602 5599 5597 5595 5591 5588 5585 5581 5579 5577 5574 5571 5569 5567 5567 5566 5567 5569 5571 5574 5577 5579 5581 5582 5582 5582 5583 5585 5586 5588 5593 5599 5603 5607 5611 5615 5619 5623 5627 5630 5634 5637 5640 5643 5647 5651 5656
5731 5727 5723 5719 5716 5712 5709 5705 5702 5698 5694 5690 5686 5682 5678 5675 5672 5668 5664 5660 5655 5652 5648 5645 5642 5641 5639 5636 5634 5631 5628 5625 5623 5622 5620 5617 5615 5612 5608 5606 5604 5602 5600 5597 5595 5592 5589 5586 5582 5579 5577 5575 5573 5571 5569 5568 5567 5568 5569 5572 5574 5576 5577 5579 5580 5580 5580 5582 5584 5584 5586 5590 5594 5597 5601 5606 5611 5615 5618 5622 5626 5629 5633 5637 5641 5645 5648 5653
5730 5726 5723 5719 5715 5711 5708 5705 5700 5697 5694 5690 5687 5683 5678 5674 5671 5668 5664 5660 5655 5651 5648 5644 5641 5639 5638 5636 5634 5632 5630 5626 5623 5621 5619 5616 5614 5611 5608 5606 5604 5602 5600 5597 5595 5592 5590 5587 5584 5580 5578 5576 5575 5573 5572 5570 5570 5570 5571 5573 5574 5576 5577 5578 5579 5579 5581 5583 5583 5583 5586 5589 5591 5594 5598 5603 5608 5611 5615 5619 5623 5626 5630 5633 5636 5641 5645 5649
5729 5725 5722 5718 5713 5709 5706 5703 5699 5696 5693 5690 5687 5683 5679 5674 5670 5667 5664 5660 5656 5651 5647 5644 5640 5638 5636 5635 5633 5632 5630 5627 5623 5620 5618 5616 5614 5611 5608 5606 5605 5603 5601 5598 5595 5593 5590 5588 5585 5582 5579 5577 5576 5575 5574 5574 5573 5573 5574 5575 5576 5577 5577 5578 5579 5580 5582 5582 5581 5583 5587 5589 5592 5595 5598 5602 5606 5608 5612 5617 5620 5624 5627 5630 5633 5638 5642 5646
5727 5724 5720 5717 5712 5708 5704 5701 5698 5694 5691 5688 5685 5682 5678 5674 5670 5667 5663 5660 5656 5652 5648 5643 5640 5637 5635 5634 5632 5630 5629 5627 5623 5620 5618 5616 5614 5612 5609 5606 5605 5603 5601 5599 5596 5594 5591 5589 5586 5584 5581 5578 5577 5576 5576 5576 5575 5575 5575 5576 5576 5577 5577 5578 5579 5581 5581 5580 5581 5585 5587 5589 5592 5596 5599 5602 5603 5606 5611 5615 5618 5621 5624 5627 5631 5635 5639 5643
5725 5722 5719 5716 5712 5707 5703 5700 5696 5693 5690 5686 5684 5682 5678 5674 5669 5665 5663 5659 5655 5652 5648 5644 5640 5637 5635 5633 5632 5629 5627 5625 5623 5620 5618 5616 5614 5612 5610 5607 5605 5603 5601 5600 5597 5594 5592 5589 5587 5585 5583 5581 5579 5578 5577 5577 5576 5576 5576 5576 5576 5576 5577 5578 5579 5580 5580 5581 5583 5586 5587 5590 5593 5595 5599 5601 5603 5605 5609 5612 5616 5619 5622 5625 5628 5632 5635 5639
5723 5720 5717 5715 5711 5707 5703 5699 5695 5692 5688 5685 5682 5680 5677 5674 5669 5664 5661 5659 5655 5652 5649 5645 5641 5638 5635 5633 5631 5629 5626 5624 5622 5620 5619 5617 5614 5612 5610 5608 5606 5603 5601 5600 5598 5595 5592 5589 5587 5586 5585 5583 5581 5580 5578 5577 5577 5577 5577 5577 5577 5577 5577 5578 5580 5581 5581 5583 5585 5587 5588 5591 5593 5594 5597 5600 5601 5604 5607 5610 5613 5616 5618 5621 5625 5628 5632 5635
5722 5718 5715 5713 5711 5707 5702 5698 5695 5691 5688 5684 5681 5678 5675 5673 5670 5665 5660 5658 5655 5652 5648 5646 5642 5638 5636 5634 5631 5629 5627 5624 5622 5621 5619 5617 5615 5612 5611 5608 5606 5604 5602 5600 5598 5595 5593 5591 5588 5587 5586 5584 5582 5580 5578 5577 5578 5578 5578 5578 5578 5578 5578 5580 5581 5582 5583 5584 5586 5587 5588 5591 5592 5592 5594 5597 5599 5602 5604 5608 5611 5614 5616 5619 5622 5625 5628 5631
5720 5717 5713 5710 5709 5706 5702 5697 5694 5690 5687 5683 5680 5677 5674 5671 5669 5666 5661 5657 5655 5652 5648 5646 5643 5639 5636 5634 5632 5630 5628 5625 5623 5621 5620 5618 5615 5613 5611 5608 5606 5605 5603 5600 5598 5596 5594 5592 5589 5588 5587 5585 5583 5581 5579 5579 5578 5578 5578 5578 5579 5579 5580 5581 5582 5582 5583 5584 5585 5586 5588 5590 5590 5591 5593 5595 5598 5600 5603 5606 5609 5612 5615 5618 5620 5622 5624 5629